THORAD AGENA D DEB, 42495

Orbit data source: Space-Track

THORAD AGENA D DEB, 42495 is space debris in SSO originally from a launch on Wed, 08 Apr 1970 UTC launched from the Air Force Western Test Range (AFWTR). Debris objects in space refer to the collection of defunct objects orbiting the Earth. Examples of debris include non-operational satellites, rocket bodies, and fragments generated from explosions, collisions, or faulty payload assembly.

Loading next visibility...
Identifier
42495, 1970-025QZ
Orbit
SSO
Country
Flag of USUS
Related business
Manufacturer
Unknown
Mission
Spacecraft
Bus & Motor
Unknown
Mass
Unknown
Launch date (UTC)
1970-04-08 (56 years ago)
Launch vehicle
Unknown
Launch site
Air Force Western Test Range (AFWTR)
Object type
Payload
Rocket body
Debris
Shape & HBR
Unknown shape, 0.1 m
Radar Cross Section
Small (<0.1 m²)

Expand to show TLE details & history
Last TLE update: 2 days ago

TLE from 2 days ago
0 THORAD AGENA D DEB
1 42495U 70025QZ  25339.39308975  .00000425  00000-0  66677-3 0  9990
2 42495  99.9929  41.4187 0027802 253.4515 106.3567 13.56475654595533
Epoch: 2025-12-05T09:26Z
TLE epoch observation values (Epoch: 2025-12-05T09:26:02.954Z)
Latitude
-0.00006°
Longitude
-174.52943°
Altitude
1,057.181 km
Speed
7.32 km/s
True Right ascension
02h 45m 40s
True Declination
0° 00' 00"
Sunlit
Object was in full shadow at epoch
Visualization orbit readout
Latitude
Unknown
Longitude
Unknown
Altitude
Unknown
Speed
Unknown
Apparent Right ascension
Unknown
Apparent Declination
Unknown
Sunlit
N/A
Visualization observer readout
Local Sidereal Time
12:52:18
Azimuth
Unknown
Elevation
Unknown
Doppler factor
Unknown
Orbital elements
Apogee altitude
1,066.476 km
Perigee altitude
1,025.196 km
Semi-major axis
7,423.973 km
Eccentricity
0.00278
Inclination
99.9929°
RAAN
41.4187°
Arg. of periapsis
253.4515°
True anomaly
106.66209°
Mean anomaly
106.3567°
Eccentric anomaly
106.50943°
Mean motion
3.39304 °/min
Orbital period
106.1 mins
BSTAR
0.00066677
Loading maneuver chart data...
Computing Atmospheric mass density...

Documentation

Showing up to 5 results
|